Location: Chippewa Lake
(41.0698°N, 81.9010°W)
Time: 04:47:30
(UTC+00:00)

SL-8 Rocket - Pass Details

Date: 05 October 2021
Orbit: 958 x 990 km, 82.9° (Epoch: 17 October)

Event Time Altitude Azimuth Distance (km) Brightness Sun altitude
Rises 09:48:53 0° 8° (N) 3,701 7.3 -19.6°
Reaches altitude 10° 09:52:34 10° 29° (NNE) 2,742 6.9 -18.9°
Maximum altitude 09:56:18 16° 66° (ENE) 2,309 7.0 -18.2°
Drops below altitude 10° 10:00:01 10° 103° (ESE) 2,719 7.4 -17.5°
Sets 10:03:37 0° 124° (SE) 3,654 7.8 -16.8°
